Showing default

THE ARAB SATELLITE 813, 66994

Orbit data source: Space-Track

THE ARAB SATELLITE 813, 66994 is an Emirian payload satellite in SSO that was launched on Wed, 10 Dec 2025 UTC via a LIJIAN-1 launch vehicle from the Jiuquan Satellite Launch Center, China (JSC). Payload-class satellites include a variety of spacecraft equipped with specific instruments for various scientific and technological missions. These include communications satellites like Starlink; space stations such as the ISS; scientific satellites like the Hubble; Earth observation satellites from companies like Planet Labs, Umbra, and HawkEye 360; GPS; miniature CubeSats for education and research; and military/defense satellites.

Loading next visibility...
Identifier
66994, 2025-292B
Orbit
SSO
Country
Flag of AEAE / UAE
Related business
Manufacturer
IMICAS/UAEU
Mission
Operational Civil Earth Obs Sci
Bus & Motor
Unknown
Mass
~260 kg wet, ~260 kg dry
Launch date (UTC)
2025-12-10 (6 months ago)
Launch vehicle
LIJIAN-1
Launch site
Jiuquan Satellite Launch Center, China (JSC)
Object type
Payload
Rocket body
Debris
Shape & HBR
Box + 1 Pan, 1.1 m
Radar Cross Section
2.853 m², Large (>1 m²)

Expand to show TLE details & history
Last TLE update: 16 hours ago

TLE from 16 hours ago
0 THE ARAB SATELLITE 813
1 66994U 25292B   26171.21672763  .00003599  00000-0  24711-3 0  9999
2 66994  97.6329 246.9622 0014127 355.2420   4.8671 15.06537802 28901
Epoch: 2026-06-20T05:12Z
TLE epoch observation values (Epoch: 2026-06-20T05:12:05.267Z)
Latitude
0.00004°
Longitude
-99.49428°
Altitude
540.105 km
Speed
7.598 km/s
True Right ascension
16h 27m 50s
True Declination
0° 00' 00"
Sunlit
Object was in full shadow at epoch
Visualization orbit readout
Latitude
Unknown
Longitude
Unknown
Altitude
Unknown
Speed
Unknown
Apparent Right ascension
Unknown
Apparent Declination
Unknown
Sunlit
N/A
Visualization observer readout
Local Sidereal Time
08:33:29
Azimuth
Unknown
Elevation
Unknown
Doppler factor
Unknown
Orbital elements
Apogee altitude
553.561 km
Perigee altitude
534.004 km
Semi-major axis
6,921.92 km
Eccentricity
0.00141
Inclination
97.6329°
RAAN
246.9622°
Arg. of periapsis
355.242°
True anomaly
4.88086°
Mean anomaly
4.8671°
Eccentric anomaly
4.87398°
Mean motion
3.7688 °/min
Orbital period
95.52 mins
BSTAR
0.00024711
Loading maneuver chart data...
Computing Atmospheric mass density...
Loading historical data...
Loading historical data...
Loading historical data...
Loading historical data...
Loading historical data...
Loading historical data...
Loading historical data...

Documentation

Showing up to 5 results
|